Regional Weather Roundup
Issued by NWS

Home | Current Version | Previous Version | Text Only | Print | Product List | Glossary On
Versions: 1 2 3 4 5 6 7 8 9 10 11 12 13 14 15 16 17 18 19 20 21 22 23 24 25 26 27 28 29 30 31 32 33 34 35 36 37 38 39 40 41 42 43 44 45 46 47 48 49 50
000
ASUS43 KBIS 281310
RWRND

NORTH DAKOTA REGIONAL WEATHER ROUNDUP
NATIONAL WEATHER SERVICE BISMARCK ND
800 AM CDT MON JUL 28 2014

NOTE: "FAIR" INDICATES FEW OR NO CLOUDS BELOW 12,000 FEET WITH NO
SIGNIFICANT WEATHER AND/OR OBSTRUCTIONS TO VISIBILITY.


NDZ001>003-009>011-017-281400-
NORTHWEST NORTH DAKOTA

CITY           SKY/WX    TMP DP  RH WIND       PRES   REMARKS
WILLISTON      SUNNY     59  53  80 CALM      30.32S
MINOT          MOSUNNY   55  50  83 CALM      30.33R
MINOT AFB      PTSUNNY   56  55  99 NW1       30.32S
$$

NDZ018>021-031>035-040>046-281400-
SOUTHWEST NORTH DAKOTA

CITY           SKY/WX    TMP DP  RH WIND       PRES   REMARKS
BISMARCK       SUNNY     53  50  89 W3        30.35S
DICKINSON      SUNNY     53  50  89 S6        30.33S
GARRISON         N/A     54  52  93 CALM      30.33S
HETTINGER ARPT SUNNY     52  49  89 CALM      30.36S
$$

NDZ004>008-012>016-024-026-027-054-281400-
NORTHEAST NORTH DAKOTA

CITY           SKY/WX    TMP DP  RH WIND       PRES   REMARKS
GRAND FORKS    CLOUDY    61  55  81 NW5       30.27R
GRND FRKS AFB  CLOUDY    60  57  88 NW5       30.28S
DEVILS LAKE    SUNNY     57  52  82 NW7       30.30S
$$

NDZ022-023-025-028>030-036>039-047>053-281400-
SOUTHEAST NORTH DAKOTA

CITY           SKY/WX    TMP DP  RH WIND       PRES   REMARKS
FARGO          CLOUDY    61  55  81 NW5       30.27R
JAMESTOWN      CLOUDY    58  53  84 NW8       30.32R
$$



USA.gov is the U.S. government's official web portal to all federal, state and local government web resources and services.